CZ-3B DEB, 42471

Orbit data source: Space-Track

CZ-3B DEB, 42471 is space debris in HEO originally from a launch on Mon, 19 Dec 2011 UTC launched from the Xichang Space Center, China (XSC). Debris objects in space refer to the collection of defunct objects orbiting the Earth. Examples of debris include non-operational satellites, rocket bodies, and fragments generated from explosions, collisions, or faulty payload assembly.

Loading next visibility...
CZ-3B DEB details
Identifier
42471, 2011-077AL
Orbit
HEO
Last TLE update1 week ago
Origin
Flag of CNCASC (CN / PRC)
ManufacturerCALT
MissionSpacecraft
Bus & MotorUnknown
MassUnknown
Launch date (UTC)
2011-12-19 (13 years ago)
Launch vehicleUnknown
Launch site
Xichang Space Center, China (XSC)
Object type
Payload
Rocket body
Debris
Shape & HBRUnknown
Radar Cross SectionMedium (>0.1 m² and <1 m²)

Expand to show TLE details & history

TLE from 1 week ago
0 CZ-3B DEB
1 42471U 11077AL  24354.22192584 -.00000073  00000-0  16264-2 0  9997
2 42471  25.7397  98.4629 7434329 233.9821  32.9712  1.89225256 24371
Epoch: 2024-12-19T05:19Z
Definitive object data (Epoch: 2024-12-19T05:19:34.392Z)
Latitude0.00036°
Longitude-69.7685°
Altitude15,625.616 km
Speed4.668 km/s
True Right ascension06h 33m 43s
True Declination0° 00' 01"
Sunlit
Object was in daylight at TLE epoch
Visualization TLE readout
Latitude25.69315°
Longitude22.815°
Altitude24,137.401 km
Speed3.419 km/s
Apparent Right ascension13h 04m 07s
Apparent Declination21° 34' 05"
Sunlit
Object is in daylight
Visualization observer readout
Local Sidereal Time11:06:31
Azimuth117.528° SE
Elevation59.015°
Doppler factor1
Orbital elements
Apogee altitude41,766.519 km
Perigee altitude706.928 km
Semi-major axis27,614.86 km
Eccentricity0.7434329
Inclination25.7397°
RAAN98.4629°
Arg. of periapsis233.9821°
True anomaly125.95252°
Mean anomaly32.9712°
Eccentric anomaly73.89513°
Mean motion0.47296 °/min
BSTAR0.0016264
Orbital period761.16 mins
Loading maneuver chart data...
Loading historical data...
Loading historical data...
Loading historical data...
Loading historical data...
Loading historical data...
Loading historical data...
Loading historical data...

CZ-3B DEB Visibility forecast

Observer location: undefined°, undefined

Span
Click to sort rows by Start time (UTC) header in descending order
Start Az.
Max El. time (UTC)
Max El. Az.
Max El.
End time (UTC)
End Az.
85 mins2024-12-26 11:45:07.111Z117.57° SE2024-12-26 11:45:07.111Z117.57° SE40.602°2024-12-26 13:10:07.111Z102.547° ESE
492 mins2024-12-27 03:33:07.111Z113.533° SE2024-12-27 11:45:07.111Z158.644° S43.489°2024-12-27 11:45:07.111Z158.644° S
|